Location: Dingelbe
(52.1739°N, 10.1340°E)
Time: 23:27:30
(UTC+00:00)

Daily predictions for brighter satellites

Satellite Brightness Start Highest point End
(mag) Time Altitude Azimuth Time Altitude Azimuth Time Altitude Azimuth
NOSS 3-4 (A) 3.8 16:53:43 10° NW 17:00:08 65° NE 17:07:43 10° ESE
NOSS 3-4 (C) 3.8 16:53:59 10° NW 17:00:25 65° NE 17:08:00 10° ESE
Cosmos 2227 Rocket 3.7 17:00:33 10° SE 17:03:52 16° E 17:07:13 10° ENE
Cosmos 1025 Rocket 3.3 17:00:44 10° SSE 17:04:52 47° E 17:09:02 10° NNE
Aureole 3 Rocket 3.1 17:02:08 10° N 17:05:52 36° ENE 17:08:56 10° SE
Thor Agena Rocket 4.4 17:06:18 10° S 17:11:19 56° WSW 17:16:26 10° NNW
Cosmos 2150 Rocket 4.5 17:06:58 10° NNW 17:11:49 38° NE 17:16:36 10° ESE
Sich 1 Rocket 3.6 17:10:00 10° N 17:14:33 68° ENE 17:19:05 10° SSE
Cosmos 2298 Rocket 4.5 17:10:49 10° NNW 17:15:48 40° NE 17:20:47 10° SE
ATLAS 2AS CENTAUR R/B 3.7 17:10:37 10° W 17:17:00 38° NNW 17:23:17 10° NE
GP-B 3.2 17:13:05 10° S 17:17:27 80° W 17:21:51 10° N
SKYMED 2 3.8 17:13:53 10° NNE 17:18:09 50° E 17:22:22 10° S
Cosmos 2123 Rocket 4.4 17:12:43 10° SSW 17:19:02 73° WNW 17:25:21 10° N
Resurs 1-3 3.5 17:16:40 10° SSE 17:20:56 66° ENE 17:25:13 10° N
Lacrosse 5 rocket 1.5 17:21:08 10° W 17:24:31 48° NNW 17:27:50 11° ENE
CZ-4 R/B 3.2 17:27:51 11° ENE 17:28:11 11° NE 17:29:24 10° NE
Resurs 01 Rocket 2.1 17:24:25 10° SE 17:28:30 39° ENE 17:32:36 10° N
Cosmos 1782 3.7 17:28:26 10° NNE 17:31:21 22° ENE 17:34:14 10° ESE
SPOT 1/Viking Rocket 4.0 17:29:39 10° S 17:34:44 65° WSW 17:39:52 10° NNW
Cosmos 1674 Rocket 3.8 17:30:27 10° SSW 17:34:50 74° WNW 17:39:17 10° N
USA 267 3.3 17:30:34 10° ENE 17:37:09 83° SSE 17:43:43 10° WSW
CARTOSAT-1 3.5 17:34:51 10° SSE 17:38:59 59° ENE 17:43:08 10° N
Radarsat Rocket 4.0 17:36:18 10° SSE 17:42:13 82° ENE 17:48:44 10° NNW
Cosmos 2082 Rocket 4.5 17:40:06 10° NW 17:42:45 13° NNW 17:45:26 10° NNE
ARIANE 6 FM1 Upper Stage 3.1 17:39:05 10° NW 17:42:53 42° NNE 17:45:29 18° E
SL-19 R/B 4.4 17:38:30 10° SSE 17:44:34 71° ENE 17:50:22 10° NNW
Cosmos 2297 Rocket 2.2 17:42:00 10° SSW 17:47:37 68° ESE 17:53:16 10° NE
RESURS DK-1 4.0 17:45:59 10° N 17:48:33 16° NE 17:49:28 15° NE
Cosmos 1447 Rocket 4.4 17:42:52 10° S 17:49:00 80° E 17:55:11 10° NNE
Cosmos 1943 4.3 17:44:17 10° NNW 17:49:01 26° NE 17:51:55 18° E
SPOT 5 3.7 17:52:21 14° ESE 17:55:53 31° ENE 18:00:22 10° N
SeaSat 1 3.8 17:53:05 10° S 17:57:43 41° WSW 18:02:21 10° NW
SJ-6B 2.7 17:55:32 10° SE 17:58:50 46° ENE 18:02:10 10° N
Tiangong 0.5 17:58:03 10° S 17:59:08 11° S 18:00:13 10° SSE
IRAS Rocket 4.3 17:53:49 10° SE 17:59:20 63° ENE 18:04:55 10° NNW
Cosmos 2228 2.9 17:59:20 10° N 18:03:31 65° ENE 18:07:41 10° SSE
PSLV R/B 3.5 17:59:37 10° SSE 18:03:44 78° WSW 18:07:51 10° NNW
COSMO-SKYMED 1 2.3 17:59:55 10° NNE 18:04:04 84° ESE 18:08:11 10° SSW
Cosmos 1544 Rocket 4.0 18:02:09 10° N 18:06:13 38° ENE 18:08:59 18° SE
Meteor 1-31 Rocket 3.3 18:06:27 29° ENE 18:06:27 29° ENE 18:09:29 10° N
NOSS 3-3 (C) 3.9 18:01:24 10° SW 18:06:48 76° NW 18:13:04 11° NE
Cosmos 1570 Rocket 3.9 18:03:02 10° SSW 18:08:18 79° ESE 18:13:35 10° NNE
CZ-2D R/B 4.3 18:04:48 10° S 18:08:38 51° W 18:12:35 10° NNW
YAOGAN 3 4.5 18:04:50 10° SSE 18:09:04 86° WSW 18:13:18 10° NNW
Cosmos 2344 4.0 18:03:28 10° S 18:10:22 35° ESE 18:14:29 20° ENE
Cosmos 1455 Rocket 3.5 18:06:56 10° NNW 18:11:12 64° W 18:15:27 10° S
YAOGAN 1 3.8 18:08:49 10° S 18:12:51 42° W 18:16:57 10° NNW
ADEOS 4.5 18:13:06 25° ENE 18:14:05 27° ENE 18:18:24 10° N
CZ-4B R/B 4.2 18:12:54 29° ESE 18:14:16 40° ENE 18:17:54 10° N
Cosmos 2263 Rocket 2.8 18:09:26 10° SSE 18:14:24 32° ESE 18:16:41 24° ENE
Cosmos 2034 Rocket 4.0 18:08:58 10° N 18:15:03 56° ENE 18:21:07 10° SSE
DMSP B5D1-3 4.4 18:10:07 10° NNE 18:15:13 65° ESE 18:20:17 10° S
Cosmos 1975 Rocket 3.0 18:11:10 10° S 18:15:27 61° E 18:19:44 10° NNE
Cosmos 1072 Rocket 4.4 18:09:44 10° N 18:16:01 84° ENE 18:22:12 10° S
Cosmos 2237 Rocket 3.5 18:14:47 10° NW 18:20:07 42° WSW 18:25:26 10° S
Cosmos 1634 Rocket 4.5 18:15:28 10° N 18:21:22 38° ENE 18:24:27 24° ESE
Cosmos 773 Rocket 3.9 18:19:28 10° SSW 18:24:45 84° ESE 18:30:04 10° NNE
DNEPR-1 R/B 4.4 18:20:01 10° NW 18:24:47 64° SW 18:30:31 10° SSE
Cosmos 972 Rocket 4.3 18:25:32 10° NNW 18:30:18 44° ENE 18:31:38 36° E
Terra 3.0 18:31:24 25° NE 18:31:24 25° NE 18:34:27 10° N
Cosmos 2208 Rocket 3.9 18:25:26 10° SSW 18:30:42 87° ESE 18:36:05 10° NNE
NOSS 3-3 (A) 4.4 18:28:01 10° WSW 18:33:24 54° NNW 18:38:43 15° NE
Meteor 2-17 Rocket 4.4 18:30:54 10° SSW 18:36:58 83° W 18:43:04 10° N
Cosmos 1346 Rocket 2.3 18:35:53 10° S 18:39:29 78° E 18:40:09 56° NNE
Cosmos 44 Rocket 3.3 18:34:57 10° SW 18:39:56 90° SE 18:42:35 29° NE
TSX-5 4.1 18:35:22 10° NW 18:40:43 82° NE 18:42:13 43° SE
Cosmos 1464 Rocket 4.3 18:35:44 10° NNW 18:42:05 72° W 18:48:20 10° S
Cosmos 2279 Rocket 4.4 18:36:39 10° N 18:42:23 38° ENE 18:43:02 37° E
Cosmos 1602 3.9 18:40:27 10° SSW 18:43:08 46° WNW 18:43:15 46° WNW
CZ-4C R/B 3.1 18:40:12 10° W 18:44:41 41° NNW 18:48:40 18° NE
SL-16 R/B 2.2 18:41:19 10° NNW 18:47:00 80° WSW 18:50:49 21° SSE
Cosmos 2227 Rocket 2.1 18:41:23 10° SSW 18:47:02 82° ESE 18:51:30 17° NNE
ATLAS CENTAUR R/B 3.2 18:54:21 10° NNW 18:54:54 14° NNW 18:54:54 14° NNW
MetOp-B 4.3 18:57:17 50° ENE 18:57:22 50° ENE 19:02:33 10° N
CZ-4 R/B 2.1 19:02:50 41° N 19:02:50 41° N 19:05:22 10° NNW
Lacrosse 5 rocket 2.2 18:58:29 10° WNW 19:01:16 35° NNW 19:01:16 35° NNW
Resurs 01 Rocket 3.6 19:01:06 10° SSW 19:04:57 29° W 19:08:50 10° NNW
Cosmos 1782 4.3 19:02:53 10° NNW 19:06:08 32° W 19:09:22 10° SSW
BREEZE-M DEB (TANK) 4.5 19:03:31 10° SSW 19:08:15 47° SE 19:11:13 38° E
ATLAS 2AS CENTAUR R/B 3.7 19:03:33 10° NW 19:09:38 32° N 19:11:46 27° NE
CZ-4B R/B 3.0 19:11:59 66° ENE 19:11:59 66° ENE 19:17:13 10° NNW
Gbstr 26 Del rocket 4.5 19:07:23 10° SW 19:14:10 52° SSE 19:15:03 50° SE
CSL-04 Debris 4.3 19:12:11 26° S 19:15:20 73° WSW 19:20:47 10° NNW
CZ-4B DEB 4.1 19:14:53 44° S 19:16:41 84° WSW 19:22:11 10° NNW
ERS-1 Rocket 3.2 19:20:01 58° NNE 19:20:01 58° NNE 19:24:10 10° N
USA 267 3.5 19:17:49 41° NE 19:20:04 62° N 19:26:31 10° W
CSL-04 Rocket 4.0 19:17:14 23° S 19:20:33 62° WSW 19:25:49 10° NNW
ARIANE 6 FM1 Upper Stage 3.7 19:18:11 10° WNW 19:21:31 39° WSW 19:21:31 39° WSW
RESURS DK-1 3.8 19:22:35 10° NNW 19:24:45 31° NNW 19:24:45 31° NNW
Cosmos 2082 Rocket 4.4 19:27:14 10° NNW 19:29:33 12° NNE 19:30:22 12° NNE
Cosmos 2297 Rocket 3.8 19:27:06 10° WSW 19:32:07 31° NW 19:37:03 10° NNE
SPOT 5 3.8 19:31:23 28° SSW 19:33:37 48° W 19:38:35 10° NNW
Cosmos 1943 3.1 19:28:02 10° NNW 19:33:43 87° WNW 19:33:43 87° WNW
Okean O Rocket 3.8 19:39:04 18° N 19:39:04 18° N 19:40:15 10° N
Tsikada Rocket 4.0 19:30:10 10° SSW 19:36:20 79° WNW 19:42:33 10° N
MOS 1 4.3 19:38:44 73° SSW 19:39:09 77° WSW 19:44:52 10° NNW
Cosmos 2219 4.3 19:42:22 10° SSW 19:45:34 35° SSW 19:45:34 35° SSW
Cosmos 1603 4.3 19:43:59 10° NNW 19:48:05 47° N 19:48:05 47° N
ADEOS 4.1 19:53:50 56° WNW 19:53:50 56° WNW 19:58:25 10° NNW
Cosmos 2263 Rocket 2.7 19:52:29 10° SW 19:58:04 56° NW 19:58:28 55° NW
Terra 3.5 20:10:00 29° NW 20:10:00 29° NW 20:12:27 10° NNW
Cosmos 1833 Rocket 4.5 20:12:40 10° NNW 20:15:10 23° N 20:15:10 23° N
Cosmos 2344 3.6 20:16:46 10° WSW 20:24:12 67° NW 20:24:32 66° NNW
Cosmos 2227 Rocket 4.0 20:26:58 10° W 20:31:44 27° NW 20:33:22 24° NNW
CZ-4C R/B 3.9 20:29:40 10° WNW 20:33:37 28° NNW 20:33:37 28° NNW
ATLAS 2AS CENTAUR R/B 3.9 20:55:10 10° NW 20:59:11 35° NNW 20:59:11 35° NNW
USA 267 4.3 21:05:09 40° NW 21:05:09 40° NW 21:09:12 10° WNW
